Wind_Speed
60 62 63 64 65 66 66 67 68 69 70 71 71 72 72 73 73 73 73 74 74 75 75 75 76 76 76 77 77 78 78 79 80 81 82 82 83 84 85 85 86 86
62 64 65 66 67 67 68 69 70 70 71 71 72 72 72 73 73 74 74 74 74 74 75 75 75 75 76 76 77 77 78 79 79 80 81 82 83 84 85 85 86 87
65 66 67 68 69 70 70 71 71 71 71 71 72 72 72 72 72 72 73 73 73 73 74 74 74 75 75 76 76 77 78 78 79 80 81 81 82 83 84 85 85 86
68 69 69 70 71 72 73 73 73 73 73 73 73 72 72 71 71 71 71 72 72 73 74 74 75 75 75 75 76 76 77 78 79 79 80 81 82 83 83 84 85 86
70 71 72 73 74 74 75 75 75 75 74 74 73 72 72 71 71 71 72 73 73 74 74 75 75 75 75 76 76 77 78 79 79 80 81 81 82 83 83 84 85 85
73 73 74 75 76 76 77 76 76 75 74 73 72 72 72 72 72 72 72 73 73 74 74 74 75 75 76 77 78 79 80 80 81 81 82 82 82 83 83 83 83 84
75 76 76 77 77 77 76 76 75 74 73 73 72 72 72 72 72 72 72 72 73 73 74 74 75 76 77 78 79 80 81 81 81 82 82 82 82 83 83 83 83 84
76 76 76 76 76 76 75 74 74 73 73 72 72 72 72 72 72 72 73 73 74 74 75 76 77 77 78 79 80 80 81 81 81 82 82 83 83 84 85 85 85 86
76 76 75 75 75 75 74 73 73 72 72 72 72 72 73 73 73 74 74 75 76 76 77 78 78 79 80 80 81 81 82 82 83 83 84 85 86 87 87 87 88 88
75 74 74 74 74 74 73 72 72 72 72 72 72 73 73 74 75 75 76 77 77 78 79 79 80 80 81 81 82 83 83 84 85 86 87 87 88 89 89 89 89 89
74 73 73 73 72 72 71 71 71 71 72 72 72 73 74 75 76 77 77 78 79 79 80 81 81 81 82 83 84 85 86 86 87 88 88 89 89 89 89 88 88 87
72 71 71 70 70 70 70 70 70 71 71 72 73 74 75 76 77 78 79 79 80 81 81 82 83 83 84 85 86 86 87 88 88 88 88 87 87 86 85 85 84 83
70 69 69 69 69 69 70 70 71 71 72 73 75 76 77 78 78 79 80 81 82 82 83 84 85 85 86 86 87 87 87 87 86 85 84 83 81 80 80 79 78 77
68 68 68 69 69 70 70 71 72 73 74 75 76 77 78 79 80 81 82 82 83 84 85 85 85 86 86 85 85 85 84 82 81 79 77 76 75 74 73 73 72 72
68 69 69 70 71 71 72 72 73 74 76 77 78 79 80 81 81 82 83 83 84 84 85 85 84 84 83 82 81 79 77 75 73 72 71 70 69 69 69 68 68 68
69 70 71 71 72 72 73 74 75 76 78 79 79 80 81 82 82 83 83 83 83 83 82 82 81 79 77 76 74 72 70 68 67 66 65 65 65 65 66 66 66 67
70 71 71 72 73 74 75 76 77 78 79 80 81 81 82 82 82 82 82 81 80 79 77 76 74 72 70 68 67 66 64 63 62 62 63 63 64 65 65 66 67 68
70 71 72 73 75 76 77 78 79 79 80 81 81 82 82 81 81 79 78 76 74 72 71 69 67 65 64 63 62 62 61 61 61 62 63 64 65 66 67 68 69 70
71 73 74 76 77 78 78 79 80 80 80 81 81 80 79 78 76 74 72 70 67 65 64 63 62 61 60 60 60 60 61 61 62 63 64 66 67 68 69 70 70 71
73 75 76 77 78 79 79 80 80 80 80 79 78 76 75 72 70 67 65 63 61 60 59 59 58 58 58 59 60 61 62 63 64 65 66 67 68 68 69 68 69 69
75 76 77 78 78 79 79 79 78 78 77 75 73 71 68 66 63 61 60 59 57 56 56 57 58 58 59 60 62 63 64 64 65 66 66 67 67 67 67 66 66 66
76 77 78 78 78 78 77 76 75 74 72 70 67 65 62 60 58 57 56 55 55 55 55 57 58 59 60 61 63 63 64 64 65 65 65 66 66 65 65 64 64 64
77 77 77 76 76 75 74 72 71 69 67 65 62 59 57 56 55 54 54 54 55 55 56 57 59 60 61 61 62 63 63 64 64 64 64 64 64 64 63 63 63 63
76 75 74 73 72 70 69 68 67 65 62 59 57 55 54 53 53 53 53 54 55 56 57 57 59 60 60 61 62 62 63 63 63 63 63 63 63 62 62 62 61 61
71 70 69 68 68 67 66 65 63 60 58 55 54 53 52 52 52 53 54 55 56 56 57 57 58 59 60 60 61 62 62 62 62 62 62 62 61 61 60 60 60 59
66 66 66 65 65 64 63 62 59 56 54 53 52 51 51 51 52 53 54 55 56 57 57 57 58 59 59 60 61 61 62 61 61 61 60 60 60 59 59 58 58 58
Wind_Direction
294 293 293 292 291 290 290 289 288 288 287 287 287 286 286 286 286 285 285 284 284 283 283 283 283 282 282 281 281 281 281 280 280 280 281 281 281 281 281 281 281 282
293 293 292 291 291 290 290 289 289 288 288 288 287 287 286 286 285 285 285 284 284 284 284 284 284 284 284 283 283 283 283 283 283 283 283 283 283 282 282 282 282 282
294 294 293 292 292 291 291 290 290 289 289 288 287 287 286 286 285 285 284 284 284 284 284 284 284 283 283 283 284 284 284 285 285 286 286 286 286 285 285 285 284 284
295 294 293 293 292 292 291 291 290 290 289 289 288 288 287 286 286 285 285 285 284 284 284 284 284 284 285 286 286 287 287 287 287 287 286 286 286 286 286 285 285 285
295 294 293 293 292 291 291 291 290 290 290 290 289 289 288 287 287 287 286 286 286 286 286 286 287 288 288 289 289 288 288 288 287 287 286 286 285 285 285 284 284 284
294 293 292 292 292 291 291 291 291 291 290 289 289 288 288 288 288 288 288 288 288 288 289 289 289 289 289 289 289 289 288 288 287 287 287 286 286 285 285 284 284 283
292 292 292 292 292 291 291 291 290 290 290 290 290 290 290 290 290 290 290 290 290 290 290 290 290 290 290 289 289 289 289 288 288 288 288 288 287 287 287 286 285 285
292 292 292 292 291 291 290 290 290 290 291 291 291 291 291 291 291 291 291 291 291 291 291 291 291 291 290 290 290 289 289 289 289 289 289 289 289 289 289 288 288 287
293 293 292 291 291 291 291 291 291 291 291 291 291 291 291 291 291 291 292 292 292 292 292 292 291 291 291 291 290 290 290 291 291 291 291 291 291 291 290 290 290 289
292 292 291 291 291 291 291 291 291 291 291 291 291 291 291 291 292 292 292 292 292 292 292 292 291 291 291 291 292 292 292 292 292 292 292 292 292 292 291 291 290 289
292 291 291 291 291 291 291 291 291 291 291 291 291 291 292 292 292 292 292 292 292 292 292 292 292 293 293 293 293 293 293 293 293 293 293 293 292 292 291 291 290 289
292 292 292 291 291 291 291 291 291 291 291 292 292 292 292 292 293 293 293 293 293 293 294 294 294 294 294 294 294 294 294 294 294 293 293 292 292 291 291 290 289 288
292 292 291 291 291 291 291 292 292 292 292 292 293 293 293 293 294 294 294 295 295 295 295 295 295 295 294 294 294 294 294 293 293 293 292 292 291 290 290 289 289 288
292 292 291 291 292 292 292 293 293 293 293 293 293 294 294 295 295 295 295 296 295 295 295 295 295 295 294 294 294 293 293 293 292 292 291 291 290 290 289 289 289 289
292 292 292 292 293 293 293 293 293 293 293 294 295 295 295 296 296 296 296 296 296 295 295 295 294 294 294 293 293 293 292 292 292 291 291 290 290 290 289 290 290 290
292 293 293 293 293 293 293 293 293 294 295 295 296 296 296 296 296 296 296 295 295 294 294 294 294 294 293 293 293 292 292 292 291 291 290 290 290 290 290 290 291 290
293 293 293 292 292 292 293 294 294 295 296 296 296 296 296 296 296 295 295 294 294 294 294 294 293 293 293 293 293 293 292 292 292 291 291 291 291 292 292 292 292 292
292 292 292 292 293 293 294 295 296 296 296 296 296 296 295 295 295 295 294 294 294 294 294 293 293 293 293 294 293 293 293 293 293 293 293 293 293 293 293 294 294 294
292 292 292 293 294 294 295 295 296 296 295 295 295 295 295 295 294 294 294 294 294 294 294 293 294 294 294 294 294 294 295 295 295 295 295 294 294 295 295 295 296 296
291 292 293 294 295 295 295 295 295 295 295 295 295 295 294 294 294 294 294 293 293 294 294 294 294 295 295 295 296 296 296 296 296 296 296 296 296 297 297 297 297 297
292 293 294 295 295 295 295 295 295 295 295 295 295 295 295 294 294 293 293 293 294 294 295 295 296 296 296 296 296 297 297 297 297 298 298 298 298 299 299 299 299 298
293 294 294 295 294 295 295 295 295 295 295 295 295 295 294 294 293 294 294 295 296 296 297 297 297 297 298 298 298 298 298 299 299 299 300 300 300 300 300 300 299 299
293 294 294 294 295 295 295 295 295 295 295 295 295 295 294 294 295 296 296 297 298 298 298 299 299 299 299 299 299 300 300 300 301 301 301 300 300 300 300 300 300 299
294 294 294 295 295 295 295 295 295 295 295 296 295 294 295 296 297 298 298 299 299 299 299 300 300 300 300 301 301 301 301 301 301 301 301 301 300 300 300 300 299 299
294 295 295 296 296 296 296 295 295 296 296 295 295 296 297 298 299 299 299 300 300 300 300 300 300 301 301 301 301 301 302 302 302 302 301 301 301 300 300 300 299 299
295 296 296 296 296 296 296 295 296 296 295 295 296 297 298 299 299 299 300 300 301 301 301 302 302 301 301 301 301 302 302 302 302 302 301 301 301 301 300 300 299 299
Height
5726 5724 5722 5720 5718 5716 5714 5711 5709 5707 5704 5702 5699 5697 5694 5692 5690 5687 5685 5683 5680 5678 5676 5674 5672 5670 5668 5666 5664 5662 5660 5657 5655 5653 5651 5649 5647 5645 5643 5642 5640 5638
5719 5716 5714 5712 5710 5708 5705 5702 5700 5697 5695 5692 5690 5688 5685 5683 5680 5678 5676 5673 5671 5669 5667 5664 5662 5660 5658 5656 5653 5651 5649 5647 5645 5642 5640 5638 5636 5634 5632 5630 5628 5626
5711 5708 5706 5703 5701 5698 5696 5693 5691 5688 5686 5683 5681 5678 5676 5674 5671 5669 5667 5664 5662 5660 5657 5655 5653 5651 5648 5646 5644 5641 5639 5637 5634 5631 5629 5626 5624 5622 5620 5618 5615 5613
5702 5700 5697 5695 5692 5690 5687 5684 5681 5679 5676 5673 5671 5669 5666 5664 5662 5659 5657 5655 5653 5650 5648 5646 5643 5641 5639 5636 5633 5631 5629 5626 5624 5621 5618 5616 5613 5611 5608 5606 5603 5601
5694 5691 5689 5686 5683 5681 5678 5675 5672 5669 5667 5664 5661 5659 5656 5654 5652 5650 5647 5645 5643 5640 5638 5635 5633 5630 5628 5625 5623 5620 5617 5615 5612 5610 5608 5605 5602 5600 5597 5594 5592 5589
5685 5683 5680 5677 5675 5671 5668 5665 5662 5660 5657 5654 5652 5649 5647 5644 5642 5639 5637 5634 5632 5630 5627 5625 5623 5620 5618 5615 5612 5609 5606 5603 5601 5598 5595 5593 5590 5587 5585 5582 5580 5577
5676 5674 5671 5668 5665 5662 5659 5656 5653 5650 5647 5644 5642 5639 5637 5634 5631 5629 5627 5624 5622 5619 5617 5615 5613 5610 5607 5604 5601 5598 5595 5592 5589 5586 5583 5580 5578 5575 5572 5570 5567 5565
5667 5664 5662 5659 5655 5652 5649 5647 5644 5641 5638 5635 5632 5629 5627 5624 5621 5619 5616 5614 5612 5609 5607 5605 5602 5600 5596 5593 5590 5587 5584 5580 5577 5575 5571 5568 5565 5562 5559 5556 5554 5552
5657 5655 5652 5649 5645 5643 5640 5637 5634 5631 5628 5626 5623 5620 5617 5614 5612 5609 5607 5604 5602 5599 5596 5594 5591 5589 5585 5582 5579 5575 5572 5569 5566 5563 5560 5556 5553 5549 5547 5544 5541 5538
5648 5645 5642 5639 5636 5633 5630 5628 5625 5622 5619 5616 5613 5610 5607 5605 5602 5600 5597 5594 5591 5588 5586 5583 5580 5577 5574 5571 5567 5564 5561 5558 5555 5552 5548 5544 5541 5537 5534 5531 5527 5524
5638 5636 5633 5630 5627 5624 5621 5619 5616 5613 5610 5607 5604 5601 5598 5595 5592 5590 5587 5584 5581 5578 5575 5572 5569 5566 5563 5559 5556 5552 5549 5546 5543 5539 5535 5531 5528 5524 5520 5517 5514 5510
5628 5626 5623 5620 5618 5615 5612 5610 5607 5604 5601 5598 5594 5591 5588 5586 5583 5580 5577 5573 5570 5567 5563 5560 5557 5554 5551 5547 5544 5540 5537 5534 5530 5526 5523 5519 5515 5511 5507 5504 5501 5498
5619 5616 5614 5611 5609 5606 5604 5601 5598 5595 5592 5588 5585 5582 5579 5576 5573 5569 5566 5562 5558 5555 5551 5548 5545 5542 5539 5535 5532 5529 5525 5522 5518 5514 5511 5507 5503 5499 5496 5492 5489 5486
5610 5607 5605 5602 5600 5597 5595 5592 5589 5586 5582 5579 5575 5572 5569 5565 5562 5558 5555 5551 5547 5543 5539 5536 5533 5529 5526 5523 5520 5517 5513 5510 5507 5503 5499 5496 5492 5489 5485 5482 5479 5476
5601 5599 5596 5593 5591 5588 5585 5582 5579 5576 5573 5570 5566 5562 5559 5555 5551 5547 5544 5540 5536 5532 5528 5524 5521 5517 5514 5511 5508 5505 5502 5499 5496 5493 5489 5486 5483 5479 5476 5473 5470 5467
5593 5590 5587 5584 5582 5579 5576 5573 5570 5567 5564 5560 5556 5552 5548 5544 5541 5537 5533 5529 5525 5520 5516 5512 5509 5506 5502 5500 5497 5494 5492 5490 5487 5484 5480 5477 5474 5471 5468 5465 5462 5458
5584 5581 5578 5575 5573 5570 5567 5564 5561 5557 5554 5550 5546 5542 5538 5534 5530 5526 5522 5518 5514 5509 5505 5501 5498 5495 5492 5489 5487 5484 5482 5481 5478 5475 5472 5468 5465 5462 5459 5456 5453 5449
5575 5572 5569 5566 5563 5560 5557 5554 5551 5547 5544 5540 5536 5532 5528 5523 5519 5515 5511 5507 5503 5499 5495 5492 5489 5486 5483 5481 5478 5475 5473 5472 5469 5466 5463 5460 5456 5453 5450 5447 5443 5439
5566 5563 5560 5557 5554 5551 5547 5544 5541 5537 5533 5530 5526 5521 5517 5513 5508 5504 5500 5497 5494 5490 5486 5483 5480 5478 5475 5472 5470 5467 5465 5463 5460 5457 5454 5451 5447 5444 5441 5437 5433 5429
5557 5554 5551 5548 5545 5541 5537 5534 5530 5527 5523 5519 5515 5511 5507 5503 5499 5495 5491 5488 5485 5482 5478 5475 5472 5470 5468 5465 5462 5459 5457 5454 5452 5448 5445 5442 5438 5435 5432 5428 5424 5419
5548 5545 5541 5538 5535 5531 5527 5524 5520 5516 5513 5508 5505 5501 5497 5494 5489 5486 5482 5479 5477 5475 5471 5467 5465 5463 5460 5457 5454 5451 5449 5446 5443 5440 5436 5433 5429 5426 5422 5419 5414 5410
5538 5535 5532 5528 5524 5521 5517 5513 5509 5506 5502 5499 5495 5492 5488 5484 5481 5477 5475 5472 5469 5467 5464 5460 5457 5455 5452 5449 5446 5443 5440 5437 5434 5431 5427 5424 5420 5417 5413 5410 5406 5401
5529 5526 5522 5518 5514 5511 5507 5503 5500 5496 5493 5490 5486 5483 5479 5476 5473 5470 5467 5465 5462 5460 5457 5453 5449 5447 5444 5441 5438 5435 5432 5429 5426 5422 5419 5415 5412 5408 5405 5401 5397 5393
5519 5516 5512 5508 5505 5501 5497 5494 5490 5487 5484 5481 5477 5474 5471 5468 5466 5463 5460 5457 5455 5452 5450 5447 5442 5439 5436 5433 5429 5426 5423 5420 5417 5414 5411 5407 5404 5401 5397 5393 5390 5386
5510 5506 5502 5499 5495 5492 5488 5485 5482 5479 5476 5473 5470 5467 5465 5462 5459 5457 5454 5450 5447 5445 5442 5439 5436 5432 5428 5425 5422 5418 5415 5412 5409 5406 5403 5399 5396 5393 5389 5386 5382 5378
5500 5497 5493 5490 5486 5483 5480 5476 5474 5471 5468 5465 5463 5461 5458 5455 5453 5450 5447 5443 5440 5437 5434 5432 5429 5425 5421 5418 5414 5411 5407 5404 5401 5398 5395 5392 5389 5385 5382 5378 5374 5371